Regional Weather Roundup
Issued by NWS Green Bay, WI

Home | Current Version | Previous Version | Graphics & Text | Print | Product List | Glossary Off
Versions: 1 2 3 4 5 6 7 8 9 10 11 12 13 14 15 16 17 18 19 20 21 22 23 24 25 26 27 28 29 30 31 32 33 34 35 36 37 38 39 40 41 42 43 44 45 46 47 48 49 50

000
ASUS43 KGRB 270110
RWRGRB

NORTH-CENTRAL AND NORTHEAST WISCONSIN REGIONAL WEATHER ROUNDUP
NATIONAL WEATHER SERVICE GREEN BAY WI
800 PM CDT SUN APR 26 2015

WIZ005-009-010>012-018-019-270200-
NORTH CENTRAL WISCONSIN

CITY           SKY/WX    TMP DP  RH WIND       PRES   REMARKS
IRONWOOD       CLEAR     45  27  49 N5        30.12S
MANITOWISH WTR CLEAR     45  24  44 N5        30.12R
ARBOR VITAE    CLEAR     46  28  49 N8        30.11R
EAGLE RIVER    CLEAR     46  28  50 N7        30.10R
LAND O LAKES   CLEAR     45  29  55 N9        30.12R
RHINELANDER    CLEAR     49  27  42 N5        30.09R
PHILLIPS       CLEAR     47  27  44 N12G17    30.10S
ANTIGO         CLEAR     49  31  49 N13       30.05R
TOMAHAWK       CLEAR     49  24  37 CALM      30.09R
MERRILL        CLEAR     51  25  36 NE10G16   30.07R
$$

WIZ013-073-270200-
NORTHEAST WISCONSIN

CITY           SKY/WX    TMP DP  RH WIND       PRES   REMARKS
IRON MOUNTAIN  CLEAR     48  26  42 N10       30.07R
MARINETTE      CLEAR     46  28  49 NE14G20   30.06R
OCONTO         CLEAR     46  33  62 NE8       30.06R
$$

WIZ017-030-035>037-045-270200-
CENTRAL WISCONSIN

CITY           SKY/WX    TMP DP  RH WIND       PRES   REMARKS
MEDFORD        CLEAR     50  27  41 N12       30.08R
WAUSAU         CLEAR     55  24  30 N12       30.04R
MOSINEE        NOT AVBL
MARSHFIELD     CLEAR     56  24  29 N12       30.04R
WISC RAPIDS    CLEAR     57  19  22 N8        30.03R
STEVENS POINT  CLEAR     54  23  29 N7        30.03R
WAUPACA        CLEAR     55  24  29 NE6       30.03R
SHAWANO        CLEAR     49  31  48 SE5       30.05R
CLINTONVILLE   CLEAR     50  28  43 E5        30.04R
$$

WIZ038-039-048-051-270200-
FOX VALLEY

CITY           SKY/WX    TMP DP  RH WIND       PRES   REMARKS
NWS GREEN BAY  CLEAR     50  33  52 NE14      30.05R
APPLETON       CLEAR     54  27  35 E10       30.03R
OSHKOSH        CLEAR     50  32  50 E9        30.03R
FOND DU LAC    CLEAR     49  26  41 E10       30.03R
$$

WIZ022-050-052-270200-
EAST CENTRAL WISCONSIN

CITY           SKY/WX    TMP DP  RH WIND       PRES   REMARKS
STURGEON BAY   PTCLDY    46  28  49 NE16      30.08R
MANITOWOC      CLEAR     44  31  60 NE7       30.06R
SHEBOYGAN      CLEAR     41  29  62 NE8       30.05R
$$

LMZ563-521-522-541>543-270200-
LAKESHORE

STATION/POSITION TIME  TEMP    WIND        PRES    VSBY  WAVE
                       AIR SEA DIR/SP/G                  HT/PER
                 (UTC) (F)     (DEG/KT/KT) (MB)    (MI)  (FT/S)
SHEBOYGAN LKSHOR 0100   44      10/  8/  9 1018.4R
KEWAUNEE LKSHORE 0100   42      30/  7/ 10 1016.8R
NORTHPORT PIER   0100   43     360/ 14/ 16 1018.3R
STURGEON BAY CG  0000   45      60/  9     1016.5      6   1
CHAMBERS ISLAND  0100   41      20/  9/ 11 1018.3S
MENOMINEE LKSHOR 0100   43      30/ 16/ 19 1018.3R
$$



USA.gov is the U.S. government's official web portal to all federal, state and local government web resources and services.